Location: Hannover
(52.3723°N, 9.7339°E)
Time: 14:55:26
(UTC+02:00)

ISS - Pass Details

Date: 04 January 2018
Orbit: 402 x 408 km, 51.6° (Epoch: 20 July)

Event Time Altitude Azimuth Distance (km) Brightness Sun altitude
Exits shadow 05:29:30 27° 99° (E) 837 -1.6 -26.3°
Drops below altitude 10° 05:31:17 10° 85° (E) 1,502 0.0 -26.0°
Sets 05:33:26 0° 80° (E) 2,371 1.3 -25.7°
